Current Weather Conditions: station 63103

sailwx.info

Wind from 240 at 15 knots

Wave height 1.7 meters (5 feet), 6 second period

Air temperature 13.8° C
Dewpoint 12.9° C

Last reported at 2019-Aug-23 21:00 UTC.
Time now 2019-Aug-23 22:47 UTC

Location: N 61°12' E 001°06'.
View on Google Maps.

See reports from other nearby stations

  
Tides and Currents Weather Stations Pressure Air Temp Water Temp Dewpoint Dewpoint Depression Visibility Wind Speed Wind Dir Waves Ship Positions
date/time (UTC)wind fromknots sea level pressurealtimeterstation pressurevisibilityair tempwater tempwave heightnotes
2019-Aug-23 21:00 240 15 13.8 1.7
2019-Aug-23 20:00 230 18 13.7 1.8
2019-Aug-23 19:00 210 12 13.5 1.8
2019-Aug-23 18:00 180 8 12.6 1.9
2019-Aug-23 17:00 200 9 12.5 2.2
2019-Aug-23 16:00 200 12 13.1 2.2
2019-Aug-23 15:00 210 11 13.1 2.4
2019-Aug-23 14:00 220 9 13.2 2.5
2019-Aug-23 13:00 230 13 13.2 2.6
2019-Aug-23 12:00 250 11 13.0 2.5
2019-Aug-23 11:00 240 13 12.9 2.5
2019-Aug-23 10:00 240 12 12.1 2.7
2019-Aug-23 09:00 230 12 12.8 2.7
2019-Aug-23 08:00 230 12 12.8 2.6
2019-Aug-23 07:00 240 6 12.6 2.7
2019-Aug-23 06:00 240 11 12.8 3.1
2019-Aug-23 05:00 240 12 13.0 3.0
2019-Aug-23 04:00 230 13 13.0 2.8
2019-Aug-23 03:00 230 14 13.0 2.6
2019-Aug-23 02:00 230 14 13.0 2.4
2019-Aug-23 01:00 220 13 13.1 2.2
2019-Aug-23 00:00 210 17 13.2 2.1
2019-Aug-22 23:00 160 14 13.2 2.2
2019-Aug-22 22:00 180 19 13.1 2.2
2019-Aug-22 21:00 190 12 13.1 1.9
2019-Aug-22 20:00 150 13 13.4 2.0
2019-Aug-22 19:00 160 19 13.3 1.9
2019-Aug-22 18:00 160 19 13.4 1.9
2019-Aug-22 17:00 160 20 13.5 1.9
2019-Aug-22 16:00 170 19 13.7 1.9
2019-Aug-22 15:00 170 17 13.7 2.1
2019-Aug-22 14:00 180 15 13.8 2.0
2019-Aug-22 13:00 190 14 13.8 1.9
2019-Aug-22 12:00 210 12 13.4 1.8
2019-Aug-22 11:00 220 11 13.2 1.8
2019-Aug-22 10:00 230 9 13.1 1.8
2019-Aug-22 09:00 250 12 13.0 1.6
2019-Aug-22 08:00 240 9 12.9 1.5
2019-Aug-22 07:00 230 7 12.9 1.6
2019-Aug-22 06:00 200 8 13.1 1.7
2019-Aug-22 05:00 190 13 13.4 1.7
2019-Aug-22 04:00 170 20 13.1 1.6
2019-Aug-22 03:00 150 18 13.2 1.8
2019-Aug-22 02:00 140 9 12.6 2.0
2019-Aug-22 01:00 180 13 12.7 1.9
2019-Aug-22 00:00 160 20 14.0 1.9
2019-Aug-21 23:00 150 22 14.2 1.9
2019-Aug-21 22:00 150 21 14.2 1.8